2023-117G (57586 NORAD) Tracking and Keplerian Element Data

This shows tracking and keplerian element data for the satellite.

Feedback or suggestion? Click here.




ElementValue
Catalog57586
Name2023-117G
Epoch Orbit255
Epoch Day239.15644424
Epoch Year2023
RAAN310.7854
Inclination97.523
Eccentricity0.0013878
Argument of Perigee240.062
Mean Anonmoly119.9233
Mean Motion15.1202526
Decay Rate0.00011859
L11 57586U 23117G 23239.15644424 .00011859 00000+0 69183-3 0 9997
L22 57586 97.5230 310.7854 0013878 240.0620 119.9233 15.12025260 2552



Live tracking and technical data element details for 2023-117G (NORAD 57586). 2023-117G can be tracked NOW for your location showing map with azimuth and elevation plus other details from your city location.







IsCatalogInMostPopularTable: catalog: 57586, numindb: 7
Update: records affected: 1



GetName: 57586 2023-117G

Hit Count: updated at: Tue, 26 Sep 2023 12:24:43 GMT